Weather Roundup
Issued by NWS

Home | Current Version | Previous Version | Graphics & Text | Print | Product List | Glossary Off
Versions: 1 2 3 4 5 6 7 8 9 10 11 12 13 14 15 16 17 18 19 20 21 22 23 24 25 26 27 28 29 30 31 32 33 34 35 36 37 38 39 40 41 42 43 44 45 46 47 48 49 50

000
NZUS93 KARX 271959
HRRWXR

CURRENT HOURLY OBSERVATIONS ACROSS
MUCH OF THE UPPER MISSISSIPPI VALLEY
NATIONAL WEATHER SERVICE LA CROSSE WI
200 PM CST TUE JAN 27 2015


...SOUTHEAST MINNESOTA...


CITY           SKY/WX    TMP DP  RH WIND       PRES   REMARKS
ROCHESTER      CLOUDY    30  25  81 SE8       30.16S WCI  22
ROCHESTER/MAYO CLOUDY    31  23  73 E6        30.16S WCI  25
WINONA         CLOUDY    32  23  69 E5        30.21F WCI  27
AUSTIN         CLOUDY    32  27  80 SE3       30.15S
ALBERT LEA     CLOUDY    34  28  80 SE6       30.14S WCI  29
DODGE CENTER   CLOUDY    32  28  86 E7        30.15S WCI  26
PRESTON        CLOUDY    28  23  81 E5        30.16S WCI  23
OWATONNA       CLOUDY    34  27  75 SE6       30.15S WCI  29
FARIBAULT      CLOUDY    34  27  75 SE5       30.16S WCI  30
$$

...ELSEWHERE IN MINNESOTA...


CITY           SKY/WX    TMP DP  RH WIND       PRES   REMARKS
MINNEAPOLIS    CLOUDY    33  24  69 S6        30.17S WCI  28
INTNL FALLS    PTSUNNY   30  23  75 S6        30.05F WCI  24
DULUTH         CLOUDY    28  21  75 S8        30.11F WCI  20
RED WING       CLOUDY    32  25  74 SE6       30.17F WCI  26
REDWOOD FALLS  CLOUDY    34  30  85 SE13      30.11F WCI  25
MANKATO        CLOUDY    36  27  69 S10       30.14F WCI  28
WORTHINGTON    MOSUNNY   37  30  75 S12       30.07S WCI  30
FAIRMONT       CLOUDY    36  27  69 SE10      30.12R WCI  28
$$

...SOUTHWEST WISCONSIN...


CITY           SKY/WX    TMP DP  RH WIND       PRES   REMARKS
LA CROSSE      CLOUDY    31  21  66 W6        30.22R WCI  25
PRAIRIE DU CHI CLOUDY    30  20  65 CALM      30.19F
BOSCOBEL       CLOUDY    30  21  69 NE3       30.21S
LONE ROCK      NOT AVBL
PLATTEVILLE    CLOUDY    28  22  79 CALM      30.18S
FORT MC COY    CLOUDY    28  21  75 CALM      30.22R
VIROQUA        CLOUDY    27  22  80 CALM      30.17S
WIS DELLS      NOT AVBL
$$

...ELSEWHERE IN WISCONSIN...


CITY           SKY/WX    TMP DP  RH WIND       PRES   REMARKS
MILWAUKEE      MOSUNNY   29  16  58 NE10      30.20R WCI  20
MADISON        LGT SNOW  28  23  81 CALM      30.18S
GREEN BAY      CLOUDY    26  17  68 NE5       30.22S WCI  20
EAU CLAIRE     NOT AVBL
BLACK RVR FLS  CLOUDY    29  22  75 CALM      30.21R
MEDFORD        CLOUDY    24  21  87 S3        30.17R FOG
WAUSAU         CLOUDY    24  20  84 CALM      30.17R FOG
WIS RAPIDS     CLOUDY    25  21  85 CALM      30.21S
MARSHFIELD     CLOUDY    26  21  81 CALM      30.18R HAZE
RICE LAKE      CLOUDY    29  23  77 CALM      30.18F
$$

...NORTHEAST IOWA...


CITY           SKY/WX    TMP DP  RH WIND       PRES   REMARKS
DECORAH        CLOUDY    28  23  80 VRB5      30.17R WCI  23
MASON CITY     CLOUDY    34  29  82 SE6       30.15F WCI  29
CHARLES CITY   CLOUDY    32  30  93 E6        30.16F WCI  26
OELWEIN        CLOUDY    30  25  80 NE6       30.17F WCI  24
$$

...ELSEWHERE IN IOWA...


CITY           SKY/WX    TMP DP  RH WIND       PRES   REMARKS
DES MOINES     MOSUNNY   45  30  55 SE6       30.14F
IOWA CITY      CLOUDY    32  26  78 E7        30.20S WCI  26
FORT DODGE     SUNNY     43  34  70 SE9       30.11F
$$

...NORTHERN ILLINOIS...


CITY           SKY/WX    TMP DP  RH WIND       PRES   REMARKS
CHICAGO-OHARE  MOSUNNY   31  18  58 NE7       30.17R WCI  24
CHICAGO-MIDWAY MOSUNNY   32  20  61 NE8       30.18R WCI  25
MOLINE         CLOUDY    30  22  72 NE3       30.20R
ROCKFORD       CLOUDY    31  23  72 N5        30.20R WCI  26
PEORIA         CLOUDY    32  25  75 VRB5      30.19R WCI  27
$$

NOTE: "FAIR" INDICATES FEW OR NO CLOUDS BELOW 12,000 FEET WITH NO
SIGNIFICANT WEATHER AND/OR OBSTRUCTIONS TO VISIBILITY. WIND
SPEEDS ARE IN MILES-PER-HOUR.



USA.gov is the U.S. government's official web portal to all federal, state and local government web resources and services.